Time,TemperatureF,DewpointF,PressureIn,WindDirection,WindDirectionDegrees,WindSpeedMPH,WindSpeedGustMPH,Humidity,HourlyPrecipIn,Conditions,Clouds,dailyrainin,SoftwareType,DateUTC
2013-04-21 00:06:00,30.7,25.0,30.42,SW,230,0.0,-999.0,78,-99.99,,,0.00,weatherlink.com 1.10,2013-04-21 04:06:00,
2013-04-21 00:21:00,30.7,25.0,30.42,SW,235,0.0,-999.0,80,-99.99,,,0.00,weatherlink.com 1.10,2013-04-21 04:21:00,
2013-04-21 00:36:00,30.8,25.0,30.43,SW,235,0.0,-999.0,80,-99.99,,,0.00,weatherlink.com 1.10,2013-04-21 04:36:00,
2013-04-21 00:51:00,30.7,25.0,30.44,SW,234,0.0,-999.0,80,-99.99,,,0.00,weatherlink.com 1.10,2013-04-21 04:51:00,
2013-04-21 01:06:00,30.6,25.0,30.44,SW,234,0.0,-999.0,80,-99.99,,,0.00,weatherlink.com 1.10,2013-04-21 05:06:00,
2013-04-21 01:21:00,30.3,25.0,30.45,SW,235,0.0,-999.0,81,-99.99,,,0.00,weatherlink.com 1.10,2013-04-21 05:21:00,
2013-04-21 01:36:00,30.0,25.0,30.45,SW,236,2.0,-999.0,80,-99.99,,,0.00,weatherlink.com 1.10,2013-04-21 05:36:00,
2013-04-21 01:51:00,29.7,25.0,30.46,SW,236,0.0,-999.0,81,-99.99,,,0.00,weatherlink.com 1.10,2013-04-21 05:51:00,
2013-04-21 02:06:00,29.4,24.0,30.46,SW,236,0.0,-999.0,81,-99.99,,,0.00,weatherlink.com 1.10,2013-04-21 06:06:00,
2013-04-21 02:21:00,29.0,24.0,30.46,SW,236,0.0,-999.0,81,-99.99,,,0.00,weatherlink.com 1.10,2013-04-21 06:21:00,
2013-04-21 02:36:00,28.7,24.0,30.47,SW,236,0.0,-999.0,81,-99.99,,,0.00,weatherlink.com 1.10,2013-04-21 06:36:00,
2013-04-21 02:51:00,28.4,24.0,30.47,SW,236,0.0,-999.0,82,-99.99,,,0.00,weatherlink.com 1.10,2013-04-21 06:51:00,
2013-04-21 03:06:00,28.1,23.0,30.47,SW,236,0.0,-999.0,82,-99.99,,,0.00,weatherlink.com 1.10,2013-04-21 07:06:00,
2013-04-21 03:20:00,27.8,23.0,30.48,SW,236,0.0,-999.0,82,-99.99,,,0.00,weatherlink.com 1.10,2013-04-21 07:20:00,
2013-04-21 03:36:00,27.5,23.0,30.48,SW,236,0.0,-999.0,82,-99.99,,,0.00,weatherlink.com 1.10,2013-04-21 07:36:00,
2013-04-21 03:51:00,27.3,23.0,30.48,SW,236,0.0,-999.0,82,-99.99,,,0.00,weatherlink.com 1.10,2013-04-21 07:51:00,
2013-04-21 04:06:00,27.0,22.0,30.49,SW,236,0.0,-999.0,82,-99.99,,,0.00,weatherlink.com 1.10,2013-04-21 08:06:00,
2013-04-21 04:21:00,26.9,22.0,30.50,SW,236,0.0,-999.0,82,-99.99,,,0.00,weatherlink.com 1.10,2013-04-21 08:21:00,
2013-04-21 04:36:00,26.9,22.0,30.51,SW,236,0.0,-999.0,82,-99.99,,,0.00,weatherlink.com 1.10,2013-04-21 08:36:00,
2013-04-21 04:51:00,26.7,22.0,30.51,SW,236,0.0,-999.0,82,-99.99,,,0.00,weatherlink.com 1.10,2013-04-21 08:51:00,
2013-04-21 05:06:00,26.6,22.0,30.52,SW,236,0.0,-999.0,82,-99.99,,,0.00,weatherlink.com 1.10,2013-04-21 09:06:00,
2013-04-21 05:21:00,26.3,22.0,30.53,SW,236,0.0,-999.0,82,-99.99,,,0.00,weatherlink.com 1.10,2013-04-21 09:21:00,
2013-04-21 05:36:00,26.1,21.0,30.54,SW,236,0.0,-999.0,82,-99.99,,,0.00,weatherlink.com 1.10,2013-04-21 09:36:00,
2013-04-21 05:51:00,26.0,21.0,30.54,SW,236,0.0,-999.0,82,-99.99,,,0.00,weatherlink.com 1.10,2013-04-21 09:51:00,
2013-04-21 06:06:00,25.9,21.0,30.55,SW,236,0.0,-999.0,82,-99.99,,,0.00,weatherlink.com 1.10,2013-04-21 10:06:00,
2013-04-21 06:21:00,25.7,21.0,30.55,SW,236,0.0,-999.0,82,-99.99,,,0.00,weatherlink.com 1.10,2013-04-21 10:21:00,
2013-04-21 06:36:00,25.4,21.0,30.57,SW,236,0.0,-999.0,82,-99.99,,,0.00,weatherlink.com 1.10,2013-04-21 10:36:00,
2013-04-21 06:51:00,25.3,21.0,30.58,SW,236,0.0,-999.0,83,-99.99,,,0.00,weatherlink.com 1.10,2013-04-21 10:51:00,
2013-04-21 07:06:00,25.5,21.0,30.60,SW,236,0.0,-999.0,84,-99.99,,,0.00,weatherlink.com 1.10,2013-04-21 11:06:00,
2013-04-21 07:20:00,26.0,22.0,30.60,SW,236,0.0,-999.0,84,-99.99,,,0.00,weatherlink.com 1.10,2013-04-21 11:20:00,
2013-04-21 07:36:00,27.0,23.0,30.61,SW,236,0.0,-999.0,84,-99.99,,,0.00,weatherlink.com 1.10,2013-04-21 11:36:00,
2013-04-21 07:51:00,28.4,24.0,30.61,WNW,284,0.0,-999.0,83,-99.99,,,0.00,weatherlink.com 1.10,2013-04-21 11:51:00,
2013-04-21 08:06:00,29.7,24.0,30.62,WNW,284,0.0,-999.0,80,-99.99,,,0.00,weatherlink.com 1.10,2013-04-21 12:06:00,
2013-04-21 08:21:00,30.8,24.0,30.64,West,263,0.0,-999.0,77,-99.99,,,0.00,weatherlink.com 1.10,2013-04-21 12:21:00,
2013-04-21 08:36:00,32.1,25.0,30.64,NW,319,1.0,-999.0,75,-99.99,,,0.00,weatherlink.com 1.10,2013-04-21 12:36:00,
2013-04-21 08:51:00,32.5,24.0,30.65,North,360,1.0,-999.0,72,-99.99,,,0.00,weatherlink.com 1.10,2013-04-21 12:51:00,
2013-04-21 09:06:00,34.4,25.0,30.65,NW,322,0.0,-999.0,68,-99.99,,,0.00,weatherlink.com 1.10,2013-04-21 13:06:00,
2013-04-21 09:21:00,34.5,24.0,30.65,North,355,0.0,-999.0,65,-99.99,,,0.00,weatherlink.com 1.10,2013-04-21 13:21:00,
2013-04-21 09:36:00,36.2,24.0,30.66,NE,37,0.0,-999.0,62,-99.99,,,0.00,weatherlink.com 1.10,2013-04-21 13:36:00,
2013-04-21 09:51:00,36.1,23.0,30.66,NE,51,2.0,-999.0,60,-99.99,,,0.00,weatherlink.com 1.10,2013-04-21 13:51:00,
2013-04-21 10:06:00,35.6,22.0,30.67,ENE,63,0.0,-999.0,58,-99.99,,,0.00,weatherlink.com 1.10,2013-04-21 14:06:00,
2013-04-21 10:21:00,35.8,24.0,30.67,North,9,0.0,-999.0,62,-99.99,,,0.00,weatherlink.com 1.10,2013-04-21 14:21:00,
2013-04-21 10:36:00,35.9,23.0,30.68,NNE,31,2.0,-999.0,59,-99.99,,,0.00,weatherlink.com 1.10,2013-04-21 14:36:00,
2013-04-21 10:51:00,37.0,24.0,30.68,NNW,329,2.0,-999.0,59,-99.99,,,0.00,weatherlink.com 1.10,2013-04-21 14:51:00,
2013-04-21 11:06:00,36.8,23.0,30.68,ENE,59,0.0,-999.0,58,-99.99,,,0.00,weatherlink.com 1.10,2013-04-21 15:06:00,
2013-04-21 11:20:00,37.7,24.0,30.68,NW,310,3.0,-999.0,59,-99.99,,,0.00,weatherlink.com 1.10,2013-04-21 15:20:00,
2013-04-21 11:36:00,38.5,25.0,30.69,NNE,17,4.0,-999.0,58,-99.99,,,0.00,weatherlink.com 1.10,2013-04-21 15:36:00,
2013-04-21 11:51:00,39.3,25.0,30.68,NNW,331,0.0,-999.0,58,-99.99,,,0.00,weatherlink.com 1.10,2013-04-21 15:51:00,
2013-04-21 12:06:00,38.4,24.0,30.69,ENE,63,3.0,-999.0,57,-99.99,,,0.00,weatherlink.com 1.10,2013-04-21 16:06:00,
2013-04-21 12:21:00,37.6,24.0,30.68,ENE,78,3.0,-999.0,58,-99.99,,,0.00,weatherlink.com 1.10,2013-04-21 16:21:00,
2013-04-21 12:36:00,37.7,24.0,30.68,ENE,67,2.0,-999.0,57,-99.99,,,0.00,weatherlink.com 1.10,2013-04-21 16:36:00,
2013-04-21 12:51:00,38.9,25.0,30.68,East,93,2.0,-999.0,57,-99.99,,,0.00,weatherlink.com 1.10,2013-04-21 16:51:00,
2013-04-21 13:06:00,39.6,26.0,30.68,NNE,33,4.0,-999.0,59,-99.99,,,0.00,weatherlink.com 1.10,2013-04-21 17:06:00,
2013-04-21 13:21:00,41.2,26.0,30.67,NNE,20,2.0,-999.0,56,-99.99,,,0.00,weatherlink.com 1.10,2013-04-21 17:21:00,
2013-04-21 13:36:00,41.8,26.0,30.67,NNE,25,2.0,-999.0,53,-99.99,,,0.00,weatherlink.com 1.10,2013-04-21 17:36:00,
2013-04-21 13:51:00,42.2,26.0,30.66,NW,321,0.0,-999.0,54,-99.99,,,0.00,weatherlink.com 1.10,2013-04-21 17:51:00,
2013-04-21 14:06:00,40.7,27.0,30.66,ENE,72,0.0,-999.0,59,-99.99,,,0.00,weatherlink.com 1.10,2013-04-21 18:06:00,
2013-04-21 14:21:00,41.0,26.0,30.66,ENE,74,3.0,-999.0,56,-99.99,,,0.00,weatherlink.com 1.10,2013-04-21 18:21:00,
2013-04-21 14:36:00,41.1,25.0,30.66,East,79,3.0,-999.0,54,-99.99,,,0.00,weatherlink.com 1.10,2013-04-21 18:36:00,
2013-04-21 14:51:00,41.4,26.0,30.65,NNE,33,0.0,-999.0,54,-99.99,,,0.00,weatherlink.com 1.10,2013-04-21 18:51:00,
2013-04-21 15:06:00,42.5,26.0,30.65,NE,52,1.0,-999.0,52,-99.99,,,0.00,weatherlink.com 1.10,2013-04-21 19:06:00,
2013-04-21 15:20:00,43.3,28.0,30.64,NNE,32,0.0,-999.0,55,-99.99,,,0.00,weatherlink.com 1.10,2013-04-21 19:20:00,
2013-04-21 15:36:00,43.2,26.0,30.64,NE,36,2.0,-999.0,51,-99.99,,,0.00,weatherlink.com 1.10,2013-04-21 19:36:00,
2013-04-21 15:51:00,42.9,27.0,30.63,SE,136,2.0,-999.0,53,-99.99,,,0.00,weatherlink.com 1.10,2013-04-21 19:51:00,
2013-04-21 16:05:00,43.1,27.0,30.62,ENE,61,4.0,-999.0,53,-99.99,,,0.00,weatherlink.com 1.10,2013-04-21 20:05:00,
2013-04-21 16:20:00,43.8,26.0,30.61,East,80,4.0,-999.0,50,-99.99,,,0.00,weatherlink.com 1.10,2013-04-21 20:20:00,
2013-04-21 16:35:00,43.7,26.0,30.61,North,5,3.0,-999.0,50,-99.99,,,0.00,weatherlink.com 1.10,2013-04-21 20:35:00,
2013-04-21 16:50:00,43.2,27.0,30.60,ENE,63,1.0,-999.0,53,-99.99,,,0.00,weatherlink.com 1.10,2013-04-21 20:50:00,
2013-04-21 17:05:00,44.0,26.0,30.60,ENE,59,2.0,-999.0,50,-99.99,,,0.00,weatherlink.com 1.10,2013-04-21 21:05:00,
2013-04-21 17:20:00,43.8,27.0,30.60,ENE,65,4.0,-999.0,52,-99.99,,,0.00,weatherlink.com 1.10,2013-04-21 21:20:00,
2013-04-21 17:35:00,43.6,26.0,30.61,East,101,2.0,-999.0,51,-99.99,,,0.00,weatherlink.com 1.10,2013-04-21 21:35:00,
2013-04-21 17:50:00,43.2,26.0,30.61,ENE,64,5.0,-999.0,51,-99.99,,,0.00,weatherlink.com 1.10,2013-04-21 21:50:00,
2013-04-21 18:05:00,42.6,26.0,30.61,ENE,61,3.0,-999.0,52,-99.99,,,0.00,weatherlink.com 1.10,2013-04-21 22:05:00,
2013-04-21 18:20:00,42.0,25.0,30.61,NE,51,4.0,-999.0,51,-99.99,,,0.00,weatherlink.com 1.10,2013-04-21 22:20:00,
2013-04-21 18:35:00,41.8,25.0,30.61,ENE,78,4.0,-999.0,52,-99.99,,,0.00,weatherlink.com 1.10,2013-04-21 22:35:00,
2013-04-21 18:50:00,40.9,24.0,30.61,NNW,334,7.0,-999.0,52,-99.99,,,0.00,weatherlink.com 1.10,2013-04-21 22:50:00,
2013-04-21 19:05:00,40.2,24.0,30.61,NE,45,3.0,-999.0,53,-99.99,,,0.00,weatherlink.com 1.10,2013-04-21 23:05:00,
2013-04-21 19:20:00,39.4,23.0,30.61,ENE,77,5.0,-999.0,53,-99.99,,,0.00,weatherlink.com 1.10,2013-04-21 23:20:00,
2013-04-21 19:35:00,38.4,22.0,30.62,NE,53,1.0,-999.0,53,-99.99,,,0.00,weatherlink.com 1.10,2013-04-21 23:35:00,
2013-04-21 19:50:00,37.8,22.0,30.62,NE,39,3.0,-999.0,53,-99.99,,,0.00,weatherlink.com 1.10,2013-04-21 23:50:00,
2013-04-21 20:05:00,37.1,21.0,30.63,ENE,78,2.0,-999.0,52,-99.99,,,0.00,weatherlink.com 1.10,2013-04-22 00:05:00,
2013-04-21 20:20:00,36.4,20.0,30.63,NE,36,1.0,-999.0,52,-99.99,,,0.00,weatherlink.com 1.10,2013-04-22 00:20:00,
2013-04-21 20:35:00,35.9,20.0,30.63,East,82,0.0,-999.0,53,-99.99,,,0.00,weatherlink.com 1.10,2013-04-22 00:35:00,
2013-04-21 20:50:00,35.3,20.0,30.63,NE,53,1.0,-999.0,53,-99.99,,,0.00,weatherlink.com 1.10,2013-04-22 00:50:00,
2013-04-21 21:05:00,34.9,19.0,30.63,ENE,63,0.0,-999.0,53,-99.99,,,0.00,weatherlink.com 1.10,2013-04-22 01:05:00,
2013-04-21 21:20:00,34.4,19.0,30.64,ENE,59,2.0,-999.0,54,-99.99,,,0.00,weatherlink.com 1.10,2013-04-22 01:20:00,
2013-04-21 21:35:00,34.2,19.0,30.64,NE,52,0.0,-999.0,55,-99.99,,,0.00,weatherlink.com 1.10,2013-04-22 01:35:00,
2013-04-21 21:50:00,33.8,20.0,30.64,NE,52,0.0,-999.0,57,-99.99,,,0.00,weatherlink.com 1.10,2013-04-22 01:50:00,
2013-04-21 22:05:00,33.6,20.0,30.63,NE,52,2.0,-999.0,58,-99.99,,,0.00,weatherlink.com 1.10,2013-04-22 02:05:00,
2013-04-21 22:20:00,33.4,20.0,30.63,ENE,71,0.0,-999.0,58,-99.99,,,0.00,weatherlink.com 1.10,2013-04-22 02:20:00,
2013-04-21 22:35:00,33.3,19.0,30.63,ENE,76,0.0,-999.0,57,-99.99,,,0.00,weatherlink.com 1.10,2013-04-22 02:35:00,
2013-04-21 22:50:00,33.2,19.0,30.63,East,86,1.0,-999.0,57,-99.99,,,0.00,weatherlink.com 1.10,2013-04-22 02:50:00,
2013-04-21 23:05:00,33.0,19.0,30.62,East,84,0.0,-999.0,56,-99.99,,,0.00,weatherlink.com 1.10,2013-04-22 03:05:00,
2013-04-21 23:20:00,32.9,18.0,30.62,East,84,0.0,-999.0,55,-99.99,,,0.00,weatherlink.com 1.10,2013-04-22 03:20:00,
2013-04-21 23:35:00,32.8,18.0,30.62,ESE,123,0.0,-999.0,54,-99.99,,,0.00,weatherlink.com 1.10,2013-04-22 03:35:00,
2013-04-21 23:50:00,32.5,19.0,30.61,East,92,2.0,-999.0,57,-99.99,,,0.00,weatherlink.com 1.10,2013-04-22 03:50:00,